Home   Weather   Karlstad   Past weeks

Flag for Sweden Past Weather in Karlstad, Sweden — Yesterday and Last 2 Weeks

Now
30 °F

Sunny.


Feels Like: 27 °F
Forecast: 26 / 31 °F
Wind: 3 mph from West

Location: Karlstad

Current Time: Dec 3, 2016 at 12:53:49 pm

Latest Report: Dec 3, 2016 at 12:20 pm


Visibility: 10 mi

Pressure: 30.12 "Hg

Humidity: 80%

Dew Point: 25 °F

Location of KarlstadLocation

Past Weather in Karlstad — Graph

°F

Karlstad Temperature Yesterday

Maximum temperature yesterday: 37 °F (at 11:50 am)
Minimum temperature yesterday: 25 °F (at 7:20 pm)
Average temperature yesterday: 31 °F

High & Low Weather Summary for the Past Weeks

 TemperatureHumidityPressure
High46 °F (Nov 22, 11:20 am)100% (Nov 18, 6:50 pm)30.39 "Hg (Nov 18, 6:50 pm)
Low25 °F (Nov 24, 11:20 pm)45% (Nov 27, 1:50 pm)29.06 "Hg (Nov 18, 5:50 pm)
Average36 °F84%29.81 "Hg
* Reported Nov 18 11:20 am — Dec 3 11:20 am, Karlstad, Weather by CustomWeather, © 2016

Note: Actual official high and low records may vary slightly from our data, if they occured in-between our weather recording intervals... More about our weather records

Advertising

Karlstad Weather History for the Previous 24 Hours

Scroll right to see more
 ConditionsComfort  
Time TempWeatherWind HumidityBarometerVisibility
11:20 am
Sat, Dec 3
28 °FScattered clouds.5 mph80%30.09 "HgN/A
10:50 am28 °FBroken clouds.3 mph80%30.09 "HgN/A
10:20 am28 °FBroken clouds.3 mph80%30.09 "HgN/A
9:50 am28 °FPassing clouds.5 mph74%30.09 "HgN/A
9:20 am28 °FSunny.5 mph74%30.09 "Hg10 mi
8:50 am25 °FSunny.5 mph86%30.09 "Hg10 mi
8:20 am25 °FClear.5 mph86%30.07 "Hg10 mi
7:50 am27 °FClear.6 mph80%30.07 "Hg10 mi
7:20 am27 °FClear.5 mph80%30.07 "Hg10 mi
6:50 am28 °FChilly.6 mph80%30.07 "HgN/A
6:20 am28 °FPassing clouds.6 mph80%30.07 "HgN/A
5:50 am28 °FChilly.6 mph80%30.07 "HgN/A
5:20 am28 °FChilly.6 mph80%30.07 "HgN/A
4:50 am28 °FChilly.6 mph80%30.07 "HgN/A
4:20 am28 °FChilly.5 mph80%30.09 "HgN/A
3:50 am28 °FChilly.6 mph80%30.09 "HgN/A
3:20 am28 °FChilly.5 mph80%30.09 "HgN/A
2:50 am30 °FChilly.6 mph75%30.09 "HgN/A
2:20 am28 °FChilly.6 mph80%30.09 "HgN/A
1:50 am30 °FChilly.6 mph75%30.09 "HgN/A
1:20 am30 °FChilly.6 mph75%30.09 "HgN/A
12:50 am30 °FChilly.7 mph75%30.09 "HgN/A
12:20 am30 °FChilly.6 mph75%30.09 "HgN/A
11:50 pm
Fri, Dec 2
30 °FChilly.6 mph75%30.09 "HgN/A
11:20 pm30 °FChilly.7 mph75%30.09 "HgN/A
10:50 pm30 °FChilly.5 mph75%30.09 "HgN/A
10:20 pm30 °FChilly.6 mph75%30.09 "HgN/A
9:50 pm30 °FClear.5 mph75%30.09 "Hg10 mi
9:20 pm30 °FPassing clouds.5 mph75%30.09 "HgN/A
8:50 pm28 °FClear.5 mph80%30.09 "Hg10 mi
8:20 pm28 °FClear.6 mph74%30.09 "Hg10 mi
7:50 pm27 °FPassing clouds.5 mph80%30.09 "HgN/A
7:20 pm25 °FClear.5 mph86%30.09 "Hg10 mi
6:50 pm27 °FClear.5 mph80%30.09 "Hg10 mi
6:20 pm27 °FClear.3 mph80%30.07 "Hg10 mi
5:50 pm28 °FClear.3 mph74%30.07 "Hg10 mi
5:20 pm32 °FClear.5 mph69%30.07 "Hg10 mi
4:50 pm32 °FPassing clouds.5 mph69%30.07 "HgN/A
4:20 pm32 °FPassing clouds.6 mph69%30.07 "HgN/A
3:50 pm34 °FClear.8 mph65%30.04 "Hg10 mi
3:20 pm34 °FClear.8 mph65%30.04 "Hg10 mi
2:50 pm36 °FSunny.9 mph60%30.01 "Hg10 mi
2:20 pm36 °FSunny.10 mph60%30.01 "Hg10 mi
1:50 pm37 °FSunny.12 mph56%30.01 "Hg10 mi
1:20 pm37 °FSunny.13 mph56%29.98 "Hg10 mi
12:50 pm37 °FPassing clouds.10 mph56%29.98 "HgN/A
12:20 pm37 °FPassing clouds.8 mph56%29.98 "HgN/A
Weather by CustomWeather, © 2016

See weather overviewHow to use our weather pages